Location: Wolf Lake
(46.8518°N, 80.6381°W)
Time: 11:33:29
(UTC-04:00)

ISS - Pass Details

Date: 14 March 2026
Orbit: 416 x 425 km, 51.6° (Epoch: 19 April)

Event Time Altitude Azimuth Distance (km) Brightness Sun altitude
Rises 21:41:27 0° 265° (W) 2,383 1.1 -23.2°
Reaches altitude 10° 21:43:37 10° 272° (W) 1,517 0.0 -23.6°
Enters shadow 21:46:21 40° 316° (NW) 642 -2.4 -24.0°
